Regional Weather Roundup
Issued by NWS

Home | Current Version | Previous Version | Graphics & Text | Print | Product List | Glossary On
Versions: 1 2 3 4 5 6 7 8 9 10 11 12 13 14 15 16 17 18 19 20 21 22 23 24 25 26 27 28 29 30 31 32 33 34 35 36 37 38 39 40 41 42 43 44 45 46 47 48 49 50
000
ASUS43 KIND 262309
RWRIN

WEATHER ROUNDUP FOR INDIANA
NATIONAL WEATHER SERVICE INDIANAPOLIS IN
600 PM EST WED NOV 26 2014

NOTE: "FAIR" INDICATES FEW OR NO CLOUDS BELOW 12,000 FEET WITH NO
SIGNIFICANT WEATHER AND/OR OBSTRUCTIONS TO VISIBILITY.

* - STATION DOES NOT REPORT WEATHER SUCH AS PRECIPITATION OR FOG.

+ - STATION NOT QUALITY CONTROLLED BY THE NATIONAL WEATHER SERVICE.
    USE DATA WITH CAUTION...ESPECIALLY DEWPOINT AND RELATIVE
    HUMIDITY OBSERVATIONS.

INZ001>003-010>013-019-020-270000-
NORTHWEST INDIANA

CITY           SKY/WX    TMP DP  RH WIND       PRES   REMARKS
KNOX *+        CLOUDY    28  20  73 NE5       30.10S WCI  22
LA PORTE +     CLOUDY    29  22  75 E5        30.11S WCI  24
MICHIGAN CITY+ CLOUDY    28  19  69 NE3       30.13R
MONTICELLO +   CLOUDY    28  21  76 E5        30.08F WCI  23
RENSSELAER +   CLOUDY    30  27  86 NE8       30.10S WCI  23
VALPARAISO     CLOUDY    26  19  74 NE6       30.11F WCI  19

$$

LMZ046-743>745-270000-
SOUTHERN LAKE MICHIGAN

STATION/POSITION TIME  TEMP WIND        PRES
                       AIR  DIR/SP/G
                 (UTC) (F)  (DEG/KT/KT) (MB)
MICHIGAN CITY    2300   27   70/  5/  6   N/A

$$

INZ004-005-014>016-021>024-270000-
NORTH CENTRAL INDIANA

CITY           SKY/WX    TMP DP  RH WIND       PRES   REMARKS
ELKHART        CLOUDY    28  18  64 CALM      30.11F
GOSHEN         CLOUDY    28  20  71 NE5       30.09F WCI  23
LOGANSPORT +   CLOUDY    28  21  74 E3        30.09F
PERU/GRISSOM   CLOUDY    27  24  88 NE7       30.08S WCI  20
ROCHESTER +    CLOUDY    30  23  74 E3        30.10S
SOUTH BEND     CLOUDY    28  20  71 N5        30.11S WCI  23
WARSAW +       CLOUDY    28  21  74 CALM      30.09S

$$

INZ006>009-017-018-025>027-270000-
NORTHEAST INDIANA

CITY           SKY/WX    TMP DP  RH WIND       PRES   REMARKS
ANGOLA *+      CLOUDY    27  18  69 CALM      30.07F
AUBURN +       CLOUDY    30  23  74 N3        30.08F
FORT WAYNE     CLOUDY    28  20  71 CALM      30.09F
HUNTINGTON +   CLOUDY    28  21  77 N3        30.08S

$$

INZ028-029-035-036-043>045-051>053-270000-
WEST CENTRAL INDIANA

CITY           SKY/WX    TMP DP  RH WIND       PRES   REMARKS
GREENCASTLE +  MOCLDY    32  25  74 N5        30.05S WCI  27
LAFAYETTE      MOCLDY    27  21  78 NE8       30.08S WCI  19
TERRE HAUTE    MOCLDY    33  25  72 NW5       30.06R WCI  29

$$

INZ030>032-037>040-046>048-054>057-064-065-270000-
CENTRAL INDIANA

CITY           SKY/WX    TMP DP  RH WIND       PRES   REMARKS
CP ATTERBURY + MOCLDY    32  27  80 NE3       30.05S
COLUMBUS       MOCLDY    32  28  86 N5        30.05S WCI  27
FRANKFORT +    MOCLDY    29  24  83 N6        30.08S WCI  23
INDIANAPOLIS   CLOUDY    31  23  72 NE6       30.04S WCI  25
-EAGLE CREEK   PTCLDY    32  22  66 NE3       30.05S
KOKOMO *+      CLOUDY    28  21  74 NE8       30.08S WCI  20
MARION +         N/A     28  21  75 NE7       30.08S WCI  20
MT COMFORT *+  PTCLDY    28  21  74 N6        30.06S WCI  22
SHELBYVILLE    PTCLDY    31  24  75 NE5       30.05R WCI  26
ZIONSVILLE +   PTCLDY    30  23  75 NE6       30.06S WCI  24

$$

INZ033-034-041-042-049-050-058-059-270000-
EAST CENTRAL INDIANA

CITY           SKY/WX    TMP DP  RH WIND       PRES   REMARKS
MUNCIE         CLOUDY    29  21  72 NE3       30.07R

$$

INZ060-061-067>069-081>083-085>088-270000-
SOUTHWEST INDIANA

CITY           SKY/WX    TMP DP  RH WIND       PRES   REMARKS
EVANSVILLE     CLOUDY    39  29  67 NE6       30.03S
HUNTINGBURG *+ CLOUDY    37  28  70 NW3       30.03S
WASHINGTON +   CLOUDY    37  32  84 CALM      30.03S

$$

INZ062-063-066-070>080-084-089>092-270000-
SOUTH CENTRAL AND SOUTHEAST INDIANA

CITY           SKY/WX    TMP DP  RH WIND       PRES   REMARKS
BLOOMINGTON    PTCLDY    31  25  78 CALM      30.03S
SEYMOUR +      MOCLDY    37  28  70 N6        30.03

$$




USA.gov is the U.S. government's official web portal to all federal, state and local government web resources and services.